Wetterdaten: Dienstag, 29.12.2015
Datum Zeit Auen-Temp. Temp gefhlt Luftfeuchte Luftdruck Regen Wind Richtung Richtung Taupunkt Windben
29.12.2015 11:59 7,2 C 6,8 C 50 % 1026,7 hPa 0,0 mm 0,0 km/h (0 Bft) O-SO 112 -2,5 C 0,0 km/h (0 Bft)
29.12.2015 12:04 7,3 C 6,9 C 50 % 1026,7 hPa 0,0 mm 0,0 km/h (0 Bft) SO 135 -2,4 C 0,0 km/h (0 Bft)
29.12.2015 12:09 7,7 C 7,2 C 49 % 1026,7 hPa 0,0 mm 0,0 km/h (0 Bft) SO 135 -2,3 C 0,0 km/h (0 Bft)
29.12.2015 12:14 7,9 C 7,4 C 49 % 1026,7 hPa 0,0 mm 0,0 km/h (0 Bft) SO 135 -2,1 C 0,0 km/h (0 Bft)
29.12.2015 12:19 7,5 C 7,2 C 48 % 1026,7 hPa 0,0 mm 0,0 km/h (0 Bft) N-NW 337 -2,8 C 0,0 km/h (0 Bft)
29.12.2015 12:24 7,9 C 7,7 C 48 % 1026,7 hPa 0,0 mm 2,6 km/h (1 Bft) W-NW 292 -2,4 C 21,5 km/h (4 Bft)
29.12.2015 12:29 8,7 C 8,4 C 48 % 1026,8 hPa 0,0 mm 7,5 km/h (2 Bft) N-NO 22 -1,7 C 11,7 km/h (2 Bft)
29.12.2015 12:34 8,7 C 8,6 C 48 % 1026,8 hPa 0,0 mm 12,2 km/h (2 Bft) W-NW 292 -1,7 C 18,1 km/h (3 Bft)
29.12.2015 12:39 8,8 C 8,7 C 46 % 1026,8 hPa 0,0 mm 10,6 km/h (2 Bft) W 270 -2,2 C 17,1 km/h (3 Bft)
29.12.2015 12:44 8,7 C 8,7 C 46 % 1026,8 hPa 0,0 mm 12,9 km/h (3 Bft) N-NW 337 -2,3 C 19,9 km/h (4 Bft)
29.12.2015 12:52 8,7 C 8,5 C 46 % 1026,8 hPa 0,0 mm 12,9 km/h (3 Bft) N-NW 337 -2,3 C 19,9 km/h (4 Bft)
29.12.2015 12:55 8,6 C 8,5 C 46 % 1027,2 hPa 0,0 mm 14,5 km/h (3 Bft) W 270 -2,4 C 7,5 km/h (2 Bft)
29.12.2015 13:00 8,5 C 8,3 C 46 % 1027,2 hPa 0,0 mm 14,8 km/h (3 Bft) W-NW 292 -2,4 C 33,1 km/h (5 Bft)
29.12.2015 13:05 8,3 C 8,0 C 46 % 1027,2 hPa 0,0 mm 14,0 km/h (3 Bft) W-NW 292 -2,6 C 11,9 km/h (2 Bft)
29.12.2015 13:10 8,0 C 7,9 C 46 % 1027,2 hPa 0,0 mm 13,5 km/h (3 Bft) W 270 -2,9 C 15,3 km/h (3 Bft)
29.12.2015 13:15 8,1 C 7,8 C 46 % 1027,4 hPa 0,0 mm 12,2 km/h (2 Bft) W 270 -2,8 C 20,7 km/h (4 Bft)
29.12.2015 13:20 8,0 C 7,6 C 46 % 1027,4 hPa 0,0 mm 12,2 km/h (2 Bft) NW 315 -2,9 C 7,5 km/h (2 Bft)
29.12.2015 13:25 8,0 C 7,7 C 46 % 1027,4 hPa 0,0 mm 11,1 km/h (2 Bft) W 270 -2,9 C 10,4 km/h (2 Bft)
29.12.2015 13:30 8,1 C 7,8 C 46 % 1027,4 hPa 0,0 mm 12,4 km/h (3 Bft) W-NW 292 -2,8 C 24,9 km/h (4 Bft)
29.12.2015 13:35 8,2 C 7,7 C 46 % 1027,7 hPa 0,0 mm 13,7 km/h (3 Bft) W-SW 247 -2,7 C 11,9 km/h (2 Bft)
29.12.2015 13:40 8,0 C 7,8 C 46 % 1027,7 hPa 0,0 mm 12,7 km/h (3 Bft) W-SW 247 -2,9 C 33,9 km/h (5 Bft)
29.12.2015 13:45 8,0 C 7,8 C 46 % 1027,7 hPa 0,0 mm 10,4 km/h (2 Bft) W 270 -2,9 C 17,6 km/h (3 Bft)
29.12.2015 13:50 8,1 C 8,1 C 46 % 1027,7 hPa 0,0 mm 9,6 km/h (2 Bft) W 270 -2,8 C 8,8 km/h (2 Bft)
29.12.2015 13:55 8,5 C 9,4 C 46 % 1027,9 hPa 0,0 mm 9,3 km/h (2 Bft) W-NW 292 -2,4 C 10,4 km/h (2 Bft)
29.12.2015 14:00 8,9 C 11,1 C 46 % 1027,9 hPa 0,0 mm 8,8 km/h (2 Bft) W-SW 247 -2,1 C 10,9 km/h (2 Bft)
29.12.2015 14:05 8,9 C 11,6 C 46 % 1027,9 hPa 0,0 mm 9,8 km/h (2 Bft) W-SW 247 -2,1 C 16,3 km/h (3 Bft)
29.12.2015 14:10 8,5 C 12,1 C 46 % 1027,9 hPa 0,0 mm 9,3 km/h (2 Bft) W 270 -2,4 C 9,8 km/h (2 Bft)
29.12.2015 14:15 8,5 C 11,2 C 46 % 1028,3 hPa 0,0 mm 10,4 km/h (2 Bft) NW 315 -2,4 C 18,6 km/h (3 Bft)
29.12.2015 14:20 8,3 C 10,6 C 49 % 1028,3 hPa 0,0 mm 10,9 km/h (2 Bft) NW 315 -1,8 C 8,3 km/h (2 Bft)
29.12.2015 14:25 8,0 C 9,6 C 49 % 1028,3 hPa 0,0 mm 9,8 km/h (2 Bft) W 270 -2,0 C 8,0 km/h (2 Bft)
29.12.2015 14:30 7,7 C 9,7 C 49 % 1028,3 hPa 0,0 mm 5,4 km/h (1 Bft) W-SW 247 -2,3 C 3,6 km/h (1 Bft)
29.12.2015 14:35 7,8 C 9,8 C 49 % 1028,6 hPa 0,0 mm 6,2 km/h (2 Bft) SW 225 -2,2 C 10,4 km/h (2 Bft)
29.12.2015 14:40 7,8 C 8,9 C 49 % 1028,6 hPa 0,0 mm 7,3 km/h (2 Bft) SW 225 -2,2 C 7,8 km/h (2 Bft)
29.12.2015 14:45 8,0 C 8,1 C 49 % 1028,6 hPa 0,0 mm 9,1 km/h (2 Bft) W 270 -2,0 C 24,9 km/h (4 Bft)
29.12.2015 14:50 8,1 C 8,2 C 49 % 1028,6 hPa 0,0 mm 12,7 km/h (3 Bft) W-SW 247 -2,0 C 16,8 km/h (3 Bft)
29.12.2015 14:55 8,1 C 8,3 C 49 % 1028,7 hPa 0,0 mm 13,2 km/h (3 Bft) W 270 -2,0 C 23,3 km/h (4 Bft)
29.12.2015 15:00 7,9 C 8,6 C 49 % 1028,7 hPa 0,0 mm 10,4 km/h (2 Bft) W-SW 247 -2,1 C 13,7 km/h (3 Bft)
29.12.2015 15:05 7,8 C 9,4 C 49 % 1028,7 hPa 0,0 mm 10,1 km/h (2 Bft) NW 315 -2,2 C 8,5 km/h (2 Bft)
29.12.2015 15:10 7,7 C 9,4 C 49 % 1028,7 hPa 0,0 mm 9,6 km/h (2 Bft) W-NW 292 -2,3 C 11,9 km/h (2 Bft)
29.12.2015 15:15 7,9 C 8,5 C 49 % 1029,0 hPa 0,0 mm 10,4 km/h (2 Bft) N 360 -2,1 C 13,7 km/h (3 Bft)
29.12.2015 15:20 7,7 C 7,7 C 49 % 1029,0 hPa 0,0 mm 10,4 km/h (2 Bft) W 270 -2,3 C 8,5 km/h (2 Bft)
29.12.2015 15:25 7,8 C 7,6 C 49 % 1029,0 hPa 0,0 mm 10,9 km/h (2 Bft) W-NW 292 -2,2 C 23,3 km/h (4 Bft)
29.12.2015 15:30 7,6 C 7,3 C 50 % 1029,0 hPa 0,0 mm 10,9 km/h (2 Bft) W-NW 292 -2,1 C 11,9 km/h (2 Bft)
29.12.2015 15:35 7,4 C 7,2 C 50 % 1029,0 hPa 0,0 mm 9,3 km/h (2 Bft) W 270 -2,3 C 8,8 km/h (2 Bft)
29.12.2015 15:40 7,2 C 7,1 C 51 % 1029,0 hPa 0,0 mm 8,0 km/h (2 Bft) W-SW 247 -2,2 C 5,2 km/h (1 Bft)
29.12.2015 15:45 7,1 C 6,9 C 51 % 1029,0 hPa 0,0 mm 8,0 km/h (2 Bft) W-SW 247 -2,3 C 9,6 km/h (2 Bft)
29.12.2015 15:50 7,1 C 6,8 C 53 % 1029,0 hPa 0,0 mm 8,8 km/h (2 Bft) W-NW 292 -1,8 C 11,1 km/h (2 Bft)
29.12.2015 15:55 6,7 C 6,5 C 53 % 1029,4 hPa 0,0 mm 8,5 km/h (2 Bft) W 270 -2,2 C 15,3 km/h (3 Bft)
29.12.2015 16:00 6,8 C 6,6 C 54 % 1029,4 hPa 0,0 mm 8,0 km/h (2 Bft) NW 315 -1,8 C 9,3 km/h (2 Bft)
29.12.2015 16:05 6,5 C 6,3 C 54 % 1029,4 hPa 0,0 mm 8,3 km/h (2 Bft) W-NW 292 -2,1 C 12,4 km/h (3 Bft)
29.12.2015 16:10 6,1 C 6,0 C 55 % 1029,4 hPa 0,0 mm 6,5 km/h (2 Bft) W-NW 292 -2,2 C 6,0 km/h (2 Bft)
29.12.2015 16:15 6,5 C 6,2 C 56 % 1029,7 hPa 0,0 mm 7,3 km/h (2 Bft) W-NW 292 -1,6 C 12,9 km/h (3 Bft)
29.12.2015 16:20 6,4 C 6,0 C 56 % 1029,7 hPa 0,0 mm 9,6 km/h (2 Bft) N-NO 22 -1,7 C 17,6 km/h (3 Bft)
29.12.2015 16:25 6,3 C 6,0 C 57 % 1029,7 hPa 0,0 mm 8,5 km/h (2 Bft) W-SW 247 -1,6 C 12,4 km/h (3 Bft)
29.12.2015 16:30 6,1 C 5,8 C 57 % 1029,7 hPa 0,0 mm 7,5 km/h (2 Bft) W-SW 247 -1,8 C 6,7 km/h (2 Bft)
29.12.2015 16:35 5,9 C 5,7 C 58 % 1030,0 hPa 0,0 mm 6,5 km/h (2 Bft) W 270 -1,7 C 4,1 km/h (1 Bft)
29.12.2015 16:40 5,9 C 5,7 C 59 % 1030,0 hPa 0,0 mm 6,0 km/h (2 Bft) W-NW 292 -1,5 C 11,4 km/h (2 Bft)
29.12.2015 16:45 6,0 C 5,7 C 58 % 1030,0 hPa 0,0 mm 6,7 km/h (2 Bft) SW 225 -1,6 C 7,8 km/h (2 Bft)
29.12.2015 16:50 5,7 C 5,5 C 58 % 1030,0 hPa 0,0 mm 6,2 km/h (2 Bft) W-NW 292 -1,9 C 15,5 km/h (3 Bft)
29.12.2015 16:55 5,6 C 5,5 C 59 % 1030,2 hPa 0,0 mm 5,4 km/h (1 Bft) W-SW 247 -1,8 C 2,8 km/h (1 Bft)
29.12.2015 17:00 5,2 C 5,2 C 59 % 1030,2 hPa 0,0 mm 4,9 km/h (1 Bft) W-SW 247 -2,1 C 0,0 km/h (0 Bft)
29.12.2015 17:05 5,2 C 5,1 C 59 % 1030,2 hPa 0,0 mm 4,1 km/h (1 Bft) W-NW 292 -2,1 C 7,5 km/h (2 Bft)
29.12.2015 17:10 5,3 C 5,1 C 59 % 1030,2 hPa 0,0 mm 4,4 km/h (1 Bft) W 270 -2,0 C 7,0 km/h (2 Bft)
29.12.2015 17:15 5,4 C 5,1 C 59 % 1030,5 hPa 0,0 mm 4,7 km/h (1 Bft) S 180 -2,0 C 5,2 km/h (1 Bft)
29.12.2015 17:20 5,3 C 5,1 C 59 % 1030,5 hPa 0,0 mm 4,4 km/h (1 Bft) S 180 -2,0 C 3,1 km/h (1 Bft)
29.12.2015 17:25 5,3 C 5,1 C 59 % 1030,5 hPa 0,0 mm 4,1 km/h (1 Bft) SW 225 -2,0 C 3,1 km/h (1 Bft)
29.12.2015 17:30 5,3 C 5,0 C 59 % 1030,5 hPa 0,0 mm 4,4 km/h (1 Bft) W-SW 247 -2,0 C 5,4 km/h (1 Bft)
29.12.2015 17:35 5,4 C 5,1 C 59 % 1030,5 hPa 0,0 mm 4,1 km/h (1 Bft) SW 225 -2,0 C 4,1 km/h (1 Bft)
29.12.2015 17:40 5,1 C 4,9 C 59 % 1030,5 hPa 0,0 mm 4,7 km/h (1 Bft) SW 225 -2,2 C 5,7 km/h (1 Bft)
29.12.2015 17:45 5,1 C 4,8 C 60 % 1030,5 hPa 0,0 mm 4,9 km/h (1 Bft) S 180 -2,0 C 4,7 km/h (1 Bft)
29.12.2015 17:50 4,9 C 4,6 C 61 % 1030,5 hPa 0,0 mm 5,4 km/h (1 Bft) S 180 -2,0 C 8,5 km/h (2 Bft)
29.12.2015 17:55 4,7 C 4,4 C 61 % 1030,7 hPa 0,0 mm 6,0 km/h (2 Bft) SW 225 -2,2 C 11,4 km/h (2 Bft)
29.12.2015 18:00 4,6 C 4,3 C 62 % 1030,7 hPa 0,0 mm 6,5 km/h (2 Bft) S 180 -2,0 C 7,8 km/h (2 Bft)
29.12.2015 18:05 4,4 C 4,2 C 62 % 1030,7 hPa 0,0 mm 6,0 km/h (2 Bft) SW 225 -2,2 C 6,2 km/h (2 Bft)
29.12.2015 18:10 4,4 C 4,2 C 63 % 1030,7 hPa 0,0 mm 5,4 km/h (1 Bft) W 270 -2,0 C 5,7 km/h (1 Bft)
29.12.2015 18:15 4,2 C 4,1 C 63 % 1030,9 hPa 0,0 mm 4,7 km/h (1 Bft) S 180 -2,2 C 2,8 km/h (1 Bft)
29.12.2015 18:20 4,1 C 4,0 C 64 % 1030,9 hPa 0,0 mm 4,1 km/h (1 Bft) S 180 -2,1 C 4,7 km/h (1 Bft)
29.12.2015 18:25 4,1 C 3,9 C 64 % 1030,9 hPa 0,0 mm 3,4 km/h (1 Bft) S 180 -2,1 C 3,4 km/h (1 Bft)
29.12.2015 18:30 4,1 C 3,8 C 65 % 1030,9 hPa 0,0 mm 1,8 km/h (1 Bft) S-SO 157 -1,9 C 0,0 km/h (0 Bft)
29.12.2015 18:35 3,3 C 3,2 C 64 % 1031,0 hPa 0,0 mm 0,8 km/h (0 Bft) O-SO 112 -2,8 C 2,6 km/h (1 Bft)
29.12.2015 18:40 2,2 C 2,2 C 66 % 1031,0 hPa 0,0 mm 0,3 km/h (0 Bft) SO 135 -3,5 C 0,0 km/h (0 Bft)
29.12.2015 18:45 1,9 C 1,8 C 66 % 1031,0 hPa 0,0 mm 0,3 km/h (0 Bft) S 180 -3,8 C 0,0 km/h (0 Bft)
29.12.2015 18:50 1,6 C 1,4 C 67 % 1031,0 hPa 0,0 mm 0,0 km/h (0 Bft) O-SO 112 -3,9 C 0,0 km/h (0 Bft)
29.12.2015 18:53 0,0 C 1,1 C 68 % 1031,0 hPa 0,0 mm 0,0 km/h (0 Bft) O-SO 112 -5,2 C 0,0 km/h (0 Bft)
29.12.2015 18:55 0,0 C 1,1 C 68 % 1031,0 hPa 0,0 mm 0,0 km/h (0 Bft) O-SO 112 -5,2 C 0,0 km/h (0 Bft)
29.12.2015 19:00 0,0 C 1,0 C 69 % 1031,0 hPa 0,0 mm 0,0 km/h (0 Bft) S-SO 157 -5,0 C 0,0 km/h (0 Bft)
29.12.2015 19:05 0,0 C 0,9 C 71 % 1031,0 hPa 0,0 mm 0,0 km/h (0 Bft) N-NW 337 -4,6 C 0,0 km/h (0 Bft)
29.12.2015 19:10 0,0 C 0,5 C 70 % 1031,0 hPa 0,0 mm 0,0 km/h (0 Bft) O-SO 112 -4,8 C 0,0 km/h (0 Bft)
29.12.2015 19:15 0,0 C 0,4 C 70 % 1031,0 hPa 0,0 mm 0,0 km/h (0 Bft) O-SO 112 -4,8 C 0,0 km/h (0 Bft)
29.12.2015 19:20 0,0 C 0,1 C 70 % 1031,0 hPa 0,0 mm 0,0 km/h (0 Bft) NO 45 -4,8 C 0,0 km/h (0 Bft)
29.12.2015 19:25 0,0 C -0,1 C 71 % 1031,0 hPa 0,0 mm 0,0 km/h (0 Bft) O-NO 67 -4,6 C 0,0 km/h (0 Bft)
29.12.2015 19:30 0,0 C -0,1 C 72 % 1031,0 hPa 0,0 mm 0,3 km/h (0 Bft) O-NO 67 -4,4 C 0,0 km/h (0 Bft)
29.12.2015 19:35 0,0 C -0,1 C 72 % 1031,0 hPa 0,0 mm 0,5 km/h (0 Bft) S 180 -4,4 C 0,0 km/h (0 Bft)
29.12.2015 19:40 0,0 C 1,2 C 76 % 1031,0 hPa 0,0 mm 2,8 km/h (1 Bft) SW 225 -3,7 C 7,3 km/h (2 Bft)
29.12.2015 19:45 0,0 C 1,6 C 76 % 1031,0 hPa 0,0 mm 4,9 km/h (1 Bft) SW 225 -3,7 C 8,0 km/h (2 Bft)
29.12.2015 19:50 0,0 C 1,7 C 75 % 1031,0 hPa 0,0 mm 3,6 km/h (1 Bft) SW 225 -3,9 C 7,3 km/h (2 Bft)
29.12.2015 19:55 0,0 C 1,9 C 75 % 1031,0 hPa 0,0 mm 1,6 km/h (1 Bft) S-SO 157 -3,9 C 0,0 km/h (0 Bft)
29.12.2015 20:00 0,0 C 2,3 C 74 % 1031,0 hPa 0,0 mm 2,6 km/h (1 Bft) S 180 -4,1 C 0,0 km/h (0 Bft)
29.12.2015 20:05 0,0 C 2,2 C 74 % 1031,0 hPa 0,0 mm 2,1 km/h (1 Bft) S 180 -4,1 C 3,4 km/h (1 Bft)
29.12.2015 20:10 0,0 C 2,2 C 73 % 1031,0 hPa 0,0 mm 2,3 km/h (1 Bft) S 180 -4,2 C 4,1 km/h (1 Bft)
29.12.2015 20:15 0,0 C 2,1 C 73 % 1031,2 hPa 0,0 mm 3,6 km/h (1 Bft) S 180 -4,2 C 4,7 km/h (1 Bft)
29.12.2015 20:20 0,0 C 2,1 C 73 % 1031,2 hPa 0,0 mm 3,4 km/h (1 Bft) S 180 -4,2 C 3,6 km/h (1 Bft)
29.12.2015 20:25 0,0 C 2,0 C 73 % 1031,2 hPa 0,0 mm 2,3 km/h (1 Bft) S 180 -4,2 C 0,0 km/h (0 Bft)
29.12.2015 20:30 0,0 C 2,0 C 73 % 1031,2 hPa 0,0 mm 1,0 km/h (0 Bft) SO 135 -4,2 C 0,0 km/h (0 Bft)
29.12.2015 20:35 0,0 C 2,0 C 73 % 1031,2 hPa 0,0 mm 0,5 km/h (0 Bft) S 180 -4,2 C 0,0 km/h (0 Bft)
29.12.2015 20:40 0,0 C 1,5 C 73 % 1031,2 hPa 0,0 mm 0,5 km/h (0 Bft) SO 135 -4,2 C 0,0 km/h (0 Bft)
29.12.2015 20:45 0,0 C 0,8 C 72 % 1031,2 hPa 0,0 mm 0,8 km/h (0 Bft) SO 135 -4,4 C 2,8 km/h (1 Bft)
29.12.2015 20:50 0,0 C 0,9 C 76 % 1031,2 hPa 0,0 mm 1,8 km/h (1 Bft) S-SO 157 -3,7 C 4,4 km/h (1 Bft)
29.12.2015 20:55 0,0 C 1,3 C 76 % 1031,2 hPa 0,0 mm 2,3 km/h (1 Bft) S-SO 157 -3,7 C 3,6 km/h (1 Bft)
29.12.2015 21:00 1,6 C 1,5 C 74 % 1031,2 hPa 0,0 mm 2,3 km/h (1 Bft) S-SO 157 -2,5 C 2,8 km/h (1 Bft)
29.12.2015 21:05 1,5 C 1,6 C 73 % 1031,2 hPa 0,0 mm 2,8 km/h (1 Bft) SO 135 -2,8 C 6,2 km/h (2 Bft)
29.12.2015 21:10 1,8 C 1,8 C 74 % 1031,2 hPa 0,0 mm 4,4 km/h (1 Bft) S-SO 157 -2,3 C 4,7 km/h (1 Bft)
29.12.2015 21:15 2,1 C 2,0 C 73 % 1031,2 hPa 0,0 mm 4,7 km/h (1 Bft) S-SO 157 -2,2 C 6,0 km/h (2 Bft)
29.12.2015 21:20 1,8 C 1,8 C 73 % 1031,2 hPa 0,0 mm 4,7 km/h (1 Bft) S 180 -2,5 C 4,7 km/h (1 Bft)
29.12.2015 21:25 1,8 C 1,7 C 74 % 1031,2 hPa 0,0 mm 4,7 km/h (1 Bft) S-SO 157 -2,3 C 4,4 km/h (1 Bft)
29.12.2015 21:30 1,8 C 1,7 C 73 % 1031,2 hPa 0,0 mm 3,4 km/h (1 Bft) SO 135 -2,5 C 3,1 km/h (1 Bft)
29.12.2015 21:35 2,0 C 1,8 C 73 % 1031,2 hPa 0,0 mm 2,6 km/h (1 Bft) S-SO 157 -2,3 C 3,6 km/h (1 Bft)
29.12.2015 21:40 2,0 C 1,8 C 73 % 1031,2 hPa 0,0 mm 3,1 km/h (1 Bft) SO 135 -2,3 C 5,7 km/h (1 Bft)
29.12.2015 21:45 1,9 C 1,7 C 73 % 1031,2 hPa 0,0 mm 4,1 km/h (1 Bft) S 180 -2,4 C 4,1 km/h (1 Bft)
29.12.2015 21:50 1,8 C 1,6 C 73 % 1031,2 hPa 0,0 mm 3,9 km/h (1 Bft) S 180 -2,5 C 3,4 km/h (1 Bft)
29.12.2015 21:55 1,8 C 1,6 C 74 % 1031,0 hPa 0,0 mm 2,6 km/h (1 Bft) S-SO 157 -2,3 C 0,0 km/h (0 Bft)
29.12.2015 22:00 1,6 C 1,3 C 73 % 1031,0 hPa 0,0 mm 1,0 km/h (0 Bft) S 180 -2,7 C 2,6 km/h (1 Bft)
29.12.2015 22:05 1,5 C 1,2 C 73 % 1031,0 hPa 0,0 mm 0,8 km/h (0 Bft) SO 135 -2,8 C 0,0 km/h (0 Bft)
29.12.2015 22:10 1,5 C 1,1 C 73 % 1031,0 hPa 0,0 mm 0,3 km/h (0 Bft) S 180 -2,8 C 0,0 km/h (0 Bft)
29.12.2015 22:15 1,2 C 0,8 C 73 % 1030,9 hPa 0,0 mm 0,3 km/h (0 Bft) O-NO 67 -3,1 C 0,0 km/h (0 Bft)
29.12.2015 22:20 0,5 C 0,2 C 73 % 1030,9 hPa 0,0 mm 0,0 km/h (0 Bft) O 90 -3,8 C 0,0 km/h (0 Bft)
29.12.2015 22:25 0,2 C -0,2 C 74 % 1030,9 hPa 0,0 mm 0,0 km/h (0 Bft) O 90 -3,9 C 0,0 km/h (0 Bft)
29.12.2015 22:30 -0,3 C -0,7 C 73 % 1030,9 hPa 0,0 mm 0,0 km/h (0 Bft) N 360 -4,5 C 0,0 km/h (0 Bft)
29.12.2015 22:35 -0,7 C -1,1 C 73 % 1031,0 hPa 0,0 mm 0,0 km/h (0 Bft) N-NO 22 -4,9 C 0,0 km/h (0 Bft)
29.12.2015 22:40 -0,4 C -1,0 C 76 % 1031,0 hPa 0,0 mm 0,0 km/h (0 Bft) O 90 -4,1 C 0,0 km/h (0 Bft)
29.12.2015 22:45 -0,8 C -1,3 C 75 % 1031,0 hPa 0,0 mm 0,0 km/h (0 Bft) O-NO 67 -4,7 C 0,0 km/h (0 Bft)
29.12.2015 22:50 -0,9 C -1,4 C 76 % 1031,0 hPa 0,0 mm 0,0 km/h (0 Bft) O 90 -4,6 C 0,0 km/h (0 Bft)
29.12.2015 22:55 -1,0 C -1,5 C 76 % 1030,8 hPa 0,0 mm 0,0 km/h (0 Bft) NW 315 -4,7 C 0,0 km/h (0 Bft)
29.12.2015 23:00 -1,1 C -1,6 C 77 % 1030,8 hPa 0,0 mm 0,0 km/h (0 Bft) O-NO 67 -4,6 C 0,0 km/h (0 Bft)
29.12.2015 23:05 -0,6 C -1,3 C 78 % 1030,8 hPa 0,0 mm 0,0 km/h (0 Bft) SO 135 -3,9 C 0,0 km/h (0 Bft)
29.12.2015 23:10 -0,8 C -1,4 C 78 % 1030,8 hPa 0,0 mm 0,0 km/h (0 Bft) S-SO 157 -4,1 C 0,0 km/h (0 Bft)
29.12.2015 23:15 -0,9 C -1,5 C 77 % 1031,0 hPa 0,0 mm 0,0 km/h (0 Bft) O-SO 112 -4,4 C 0,0 km/h (0 Bft)
29.12.2015 23:20 -1,4 C -1,8 C 77 % 1031,0 hPa 0,0 mm 0,0 km/h (0 Bft) SO 135 -4,9 C 0,0 km/h (0 Bft)
29.12.2015 23:25 -1,6 C -2,0 C 77 % 1031,0 hPa 0,0 mm 0,0 km/h (0 Bft) SO 135 -5,1 C 0,0 km/h (0 Bft)
29.12.2015 23:30 -1,7 C -2,1 C 77 % 1031,0 hPa 0,0 mm 0,0 km/h (0 Bft) W-SW 247 -5,2 C 5,4 km/h (1 Bft)
29.12.2015 23:35 -1,3 C -1,8 C 78 % 1031,2 hPa 0,0 mm 0,3 km/h (0 Bft) SO 135 -4,6 C 0,0 km/h (0 Bft)
29.12.2015 23:40 -1,9 C -2,2 C 78 % 1031,2 hPa 0,0 mm 0,3 km/h (0 Bft) NO 45 -5,2 C 0,0 km/h (0 Bft)
29.12.2015 23:45 -1,8 C -2,2 C 78 % 1031,2 hPa 0,0 mm 0,0 km/h (0 Bft) N-NW 337 -5,1 C 0,0 km/h (0 Bft)
29.12.2015 23:50 -2,1 C -2,4 C 78 % 1031,2 hPa 0,0 mm 0,0 km/h (0 Bft) NO 45 -5,4 C 0,0 km/h (0 Bft)
29.12.2015 23:55 -1,9 C -2,3 C 78 % 1030,9 hPa 0,0 mm 0,0 km/h (0 Bft) NO 45 -5,2 C 0,0 km/h (0 Bft)
_ Min-Zeit 23:50 23:50 14:15 12:24 - 23:55 - - 23:50 23:55
Minimum _ -2,1 C -2,4 C 46 % 1026,7 hPa - 0,0 km/h (0 Bft) - - -5,4 C 0,0 km/h (0 Bft)
_ Max-Zeit 14:05 14:10 23:55 23:50 23:55 13:00 - - 16:40 13:40
Maximum _ 8,9 C 12,1 C 78 % 1031,2 hPa 0,0 mm 14,8 km/h
W-NW (3 Bft)
- - -1,5 C 33,9 km/h
W-SW (5 Bft)
Durchschnitt _ 4,4 C 4,5 C 60 % 1029,4 hPa #0,0 mm 4,2 km/h (1 Bft) S - -2,9 C 5,7 km/h (1 Bft)